Wind_Speed
13 12 13 13 14 15 14 11 10 11 11 10 10 10 9 9 8 8 9 10 11 10 9 10 9 8 7 8 8 9 8 8 8 8 8 8 8 8 7 6 7 7 7 7 7 7 7 7 8 7 7 8 8 8 8 8 8 8 8 8 10 11 12 14 15 16 16 15 14 14 13 12 12 12 12 11 10 9 8 8 8 7 7 7 7
12 11 12 13 13 14 13 11 10 10 10 9 9 8 8 7 7 7 8 9 10 10 10 10 9 8 8 8 8 9 9 9 9 9 9 9 8 8 7 6 6 7 7 7 7 7 8 8 8 8 7 7 7 8 8 9 9 8 8 9 10 11 14 16 17 16 15 14 13 12 12 12 12 12 11 10 9 9 9 9 8 7 7 7 7
12 11 11 12 12 13 12 11 10 9 9 9 8 8 7 6 5 5 6 8 9 10 9 10 9 9 8 9 9 9 9 9 10 10 9 9 9 8 7 7 7 7 7 7 7 7 8 8 8 8 8 7 7 8 8 9 9 8 9 10 11 13 16 17 16 15 14 13 13 12 12 13 12 11 11 10 10 10 9 9 8 7 8 8 8
12 12 11 11 12 12 12 11 10 9 9 8 8 7 6 5 5 4 5 6 7 8 8 8 9 9 8 9 9 9 9 9 10 11 10 9 9 8 8 7 7 7 7 7 7 7 8 7 8 8 8 8 8 8 8 8 8 9 10 11 13 15 17 16 15 14 14 13 12 13 13 12 12 11 11 11 10 10 9 8 8 9 10 10 10
12 12 11 11 11 11 11 10 9 9 9 8 7 6 6 5 4 4 4 5 6 7 7 8 8 9 9 9 10 10 9 9 10 11 11 9 9 9 8 7 7 7 7 7 7 8 8 8 8 8 8 8 8 8 8 8 9 10 11 12 15 16 15 15 14 14 13 13 13 13 13 12 12 12 11 11 10 10 10 10 11 11 12 13 13
11 11 10 10 10 10 10 9 8 8 7 7 6 5 5 4 3 3 3 4 5 6 7 8 8 9 9 9 9 9 9 9 10 11 10 9 8 8 8 8 8 8 8 8 7 8 8 8 8 8 9 9 9 9 8 9 9 11 12 14 16 15 14 14 14 13 13 13 13 13 13 13 12 11 11 11 11 12 12 13 13 14 15 15 14
10 10 10 9 9 9 9 8 8 7 7 6 5 4 4 3 3 3 3 4 5 6 8 8 8 8 8 8 9 8 8 8 9 10 10 9 8 8 8 8 8 8 8 9 9 8 8 9 9 8 9 10 10 9 9 10 10 12 14 16 16 15 14 13 13 13 12 13 13 14 13 13 12 11 12 13 13 14 15 15 16 16 16 16 15
9 9 9 9 8 8 8 8 7 7 6 6 5 4 4 3 3 3 3 4 5 7 7 7 7 7 8 8 8 9 8 8 8 9 11 10 10 9 9 9 8 7 7 8 10 10 10 9 9 9 9 11 11 10 11 12 12 13 16 16 15 15 14 13 12 12 13 14 14 14 13 12 12 12 14 15 16 17 17 18 18 17 16 16 16
9 9 8 8 8 7 8 8 7 7 6 5 5 5 4 4 3 3 4 5 6 6 6 6 7 7 7 8 8 9 9 8 9 10 11 11 11 10 10 9 8 8 7 7 9 10 11 11 10 9 10 12 12 12 13 13 13 15 17 16 15 15 14 13 12 12 13 14 14 14 13 12 13 14 16 17 18 19 19 18 18 17 17 17 17
9 8 8 8 8 8 8 7 7 6 6 6 5 5 5 4 4 4 4 5 5 5 4 5 6 6 7 8 9 9 9 9 10 10 10 10 10 10 9 8 8 8 8 7 8 11 12 12 11 10 11 13 13 13 13 14 15 17 17 15 15 14 14 12 12 12 13 15 14 13 13 13 15 17 18 19 19 19 19 18 17 17 18 18 18
8 8 8 8 8 8 8 7 6 6 7 6 6 6 5 5 5 4 4 3 3 3 3 4 5 6 7 8 8 8 9 10 10 10 10 11 11 10 9 9 9 8 8 9 8 11 13 13 12 11 13 14 14 14 14 15 17 18 16 15 15 14 13 12 12 13 14 14 13 13 14 16 17 19 20 20 20 19 19 18 18 18 19 19 18
8 9 9 8 8 8 7 6 7 7 7 7 6 5 5 5 5 4 3 2 2 2 2 2 4 5 6 7 7 7 9 11 10 9 10 11 10 10 10 9 9 9 9 10 9 12 14 14 13 13 14 15 15 15 15 16 18 17 16 16 15 14 13 12 13 14 14 13 13 14 16 18 19 20 20 20 20 19 19 19 19 19 19 19 19
9 9 9 9 8 8 7 7 7 8 7 6 5 5 5 5 4 3 2 2 3 4 3 2 1 3 4 4 6 7 9 11 10 10 11 10 10 9 10 10 10 10 10 10 9 12 14 14 14 14 15 15 15 15 16 17 18 17 16 15 14 13 13 13 13 14 14 13 14 16 18 19 19 20 21 20 20 19 19 20 20 20 19 19 18
9 9 8 8 8 8 7 7 7 8 7 5 5 5 5 5 3 2 2 3 4 4 3 2 1 1 2 3 5 7 9 11 10 10 11 10 10 10 10 10 10 11 11 10 9 12 15 15 15 16 16 16 16 16 17 18 17 17 16 15 14 13 13 13 13 14 14 14 16 18 19 20 20 21 21 20 20 20 20 20 20 19 18 18 19
9 9 9 9 9 8 7 6 7 8 6 4 5 5 6 6 4 2 3 5 5 3 2 1 1 0 1 2 4 6 7 8 8 9 10 9 10 11 11 10 10 11 11 10 10 13 14 15 17 17 18 17 16 16 17 18 17 16 15 14 13 13 14 13 13 15 15 16 18 19 20 20 20 21 21 20 20 21 21 20 19 18 18 19 19
9 8 8 9 9 9 6 6 7 7 6 5 6 8 9 7 4 3 4 6 6 3 1 2 2 2 1 2 3 4 4 5 6 7 8 8 9 10 11 10 10 12 13 11 11 14 15 16 18 18 18 18 17 17 18 17 16 16 15 13 13 14 14 14 14 15 16 18 19 20 20 20 21 21 21 21 21 21 20 19 18 18 18 19 19
9 9 8 8 9 9 6 5 6 6 6 5 7 10 9 5 3 4 6 7 7 5 2 2 4 4 3 2 4 4 4 4 5 6 6 7 8 9 10 11 11 13 13 12 13 15 16 17 19 19 19 18 18 19 18 17 16 15 14 13 13 14 15 15 14 15 17 20 20 20 21 21 21 21 21 21 21 21 19 18 17 18 19 19 20
11 10 8 8 9 9 6 5 5 6 6 6 8 10 9 5 4 5 7 8 7 6 4 4 6 6 4 4 5 5 4 5 5 7 6 7 9 10 11 11 13 14 14 15 16 18 18 19 20 20 19 18 18 19 18 17 16 14 13 13 14 14 15 16 15 16 19 21 21 21 21 21 22 22 22 22 21 20 18 17 18 18 19 20 20
12 11 10 8 9 9 7 6 6 7 6 6 8 9 8 6 5 5 7 9 8 7 6 6 8 7 6 7 7 6 6 6 7 8 8 8 9 11 12 13 14 16 17 18 19 19 20 20 21 20 19 19 19 19 18 17 15 14 13 13 14 15 16 16 16 17 20 21 21 21 21 22 22 22 22 21 20 19 18 17 18 19 19 20 20
12 12 11 9 9 9 7 6 7 8 5 5 9 10 8 7 6 7 8 9 9 8 8 9 10 10 8 9 10 8 7 7 9 10 10 9 10 12 14 14 16 18 19 20 20 21 21 22 21 20 19 20 20 19 17 16 15 13 13 14 15 15 16 17 17 18 20 21 21 21 22 22 23 22 22 21 20 19 18 18 18 19 20 20 21
12 12 11 9 8 9 7 6 7 8 6 6 9 11 9 8 8 8 9 10 10 9 10 11 12 13 12 12 13 12 10 9 11 12 12 12 13 14 16 17 19 20 20 21 23 23 22 22 21 20 20 20 20 18 17 16 14 14 14 14 15 16 17 17 18 19 20 21 21 21 22 23 23 22 22 21 20 18 17 17 18 19 20 20 21
13 13 12 10 9 9 7 7 8 9 7 5 7 11 12 11 11 10 10 11 11 11 12 13 14 14 14 15 15 15 14 12 14 15 16 16 17 18 19 21 22 22 22 23 24 24 23 22 20 20 20 21 20 18 17 15 14 14 15 15 15 16 17 17 18 19 20 21 22 22 22 23 22 22 21 21 19 18 17 17 18 19 20 21 22
12 12 12 11 10 9 8 7 9 9 8 6 6 9 13 13 11 10 11 12 12 13 15 14 14 15 15 16 16 17 16 15 15 17 19 20 20 21 22 23 23 23 24 25 25 25 23 21 20 21 21 21 20 18 16 15 15 15 15 15 16 16 17 17 18 20 20 21 22 22 23 23 21 21 21 20 19 17 17 17 18 19 20 21 22
11 12 11 10 9 9 9 8 9 8 8 8 7 7 10 11 10 10 11 12 13 13 14 14 15 16 16 16 17 18 17 16 17 18 20 21 23 23 23 24 25 25 26 26 25 24 22 21 20 21 22 20 19 18 16 15 15 15 15 15 16 17 17 18 19 20 20 21 22 22 22 22 21 20 19 18 18 17 17 18 19 19 20 21 22
11 11 11 9 9 9 9 9 9 9 10 10 9 8 9 10 11 12 13 12 12 13 14 14 15 16 16 17 19 19 19 18 18 19 21 22 23 23 23 25 26 27 26 26 25 23 22 22 22 21 21 20 19 17 16 15 15 15 16 16 16 17 17 18 19 20 21 21 21 22 22 21 20 19 18 17 17 17 17 18 19 19 20 21 22
10 11 10 9 8 8 9 9 9 9 9 9 9 8 8 9 10 12 14 13 11 12 13 14 15 15 16 18 18 19 20 19 19 19 20 22 23 23 24 25 26 27 27 26 24 22 22 23 22 21 20 19 18 17 16 15 15 15 15 16 16 16 17 18 19 20 21 21 21 21 21 20 18 18 17 16 16 17 17 18 19 19 20 21 22
10 10 10 9 8 8 8 8 9 8 9 9 8 9 8 8 8 9 11 12 12 13 12 13 14 14 16 18 18 19 20 20 20 19 20 21 22 22 23 25 26 27 26 24 23 22 23 23 22 21 19 19 18 17 16 16 16 15 15 16 16 16 17 18 19 20 20 20 20 20 20 19 17 17 16 15 16 16 17 18 19 20 20 20 21
10 10 10 9 8 8 8 8 9 8 8 8 8 9 8 7 8 9 10 11 13 13 12 13 12 13 15 17 17 18 19 20 20 20 20 21 22 23 24 26 26 26 24 22 22 23 23 23 22 20 19 18 17 16 16 16 16 15 15 15 15 16 17 18 18 19 20 19 19 20 19 18 16 16 15 15 16 17 18 19 19 19 20 20 21
9 10 9 9 8 8 8 8 8 8 8 7 8 9 9 7 7 8 9 10 11 12 13 13 12 12 14 15 16 17 18 18 20 21 21 21 22 23 25 26 25 24 23 22 23 24 23 22 20 19 18 17 16 15 15 15 15 15 15 15 15 16 17 17 18 19 19 19 19 19 18 17 16 15 14 15 16 17 18 19 19 19 19 20 21
9 9 9 9 9 8 8 8 9 9 8 8 8 9 9 8 8 8 8 9 9 10 11 12 12 13 13 14 15 16 17 18 19 21 22 23 23 23 23 24 23 23 23 23 24 24 23 21 18 17 16 16 15 15 15 15 15 15 15 14 15 16 16 16 17 18 18 18 18 18 17 16 15 14 14 15 16 17 18 18 19 19 20 20 21
9 9 10 9 9 9 8 8 9 9 9 9 9 9 9 9 8 8 8 8 8 8 9 11 12 13 14 14 15 16 17 18 19 20 22 23 24 23 22 22 22 23 24 24 24 22 21 19 17 16 15 14 15 15 15 15 14 14 14 14 15 16 15 15 16 17 18 18 17 17 17 15 15 14 14 15 16 17 17 18 18 19 20 21 21
10 9 10 10 9 9 9 8 8 9 9 10 10 10 10 10 9 8 8 8 8 8 9 10 11 13 14 15 15 16 18 19 19 20 21 22 22 22 21 21 22 23 24 23 22 20 18 17 15 15 14 14 14 14 15 14 14 13 14 14 15 15 14 14 15 16 16 17 17 16 15 15 14 14 14 14 15 16 17 17 18 19 20 21 22
10 10 10 10 9 9 9 8 8 8 9 10 10 10 11 11 10 9 8 8 8 8 9 10 12 13 15 15 16 16 18 19 19 19 20 20 20 20 21 22 22 23 22 21 19 18 17 15 14 13 13 12 12 13 14 14 13 13 13 14 14 14 14 13 14 15 15 15 16 15 14 14 14 13 13 14 14 15 15 16 17 19 20 21 22
10 10 10 10 10 9 9 9 8 8 9 10 10 10 11 11 11 10 9 8 8 9 10 11 13 14 15 16 16 17 18 18 19 19 19 19 20 20 21 21 22 21 20 19 17 16 16 14 13 13 12 11 11 12 13 14 13 12 12 13 14 13 12 13 13 14 15 14 14 14 14 14 13 13 13 13 13 13 14 15 16 18 19 19 21
10 10 10 10 10 10 9 9 8 8 9 9 10 10 10 11 11 11 10 10 10 10 12 13 14 15 15 16 17 17 17 18 19 19 19 20 20 21 21 21 20 19 18 17 16 15 14 13 12 12 12 10 10 11 13 13 13 12 11 12 13 13 12 12 12 12 13 14 14 13 13 13 13 13 12 12 12 12 13 14 15 16 16 17 18
10 10 10 10 10 10 10 10 9 8 8 9 9 10 10 11 11 12 12 12 12 12 13 14 15 16 16 17 18 18 18 19 19 20 20 21 21 20 20 19 17 17 16 15 14 13 12 11 10 10 11 10 10 11 12 13 12 11 10 11 12 12 11 11 11 11 12 13 13 13 13 12 12 12 11 12 11 11 11 12 13 14 14 14 15
11 10 10 10 10 10 11 10 10 9 9 9 9 10 10 10 11 12 13 14 14 15 15 16 17 17 18 18 19 19 20 20 20 21 21 20 19 18 17 16 15 14 14 13 13 12 11 10 9 9 9 9 9 10 11 12 11 10 10 11 11 11 10 10 10 10 11 11 12 12 11 11 12 11 10 11 11 9 9 10 11 11 12 12 13
11 11 11 11 11 11 11 11 10 10 9 9 10 10 10 10 11 12 14 15 16 17 18 18 18 19 19 20 20 20 20 20 20 20 19 18 17 15 14 13 12 11 11 11 11 10 10 10 9 9 8 9 9 9 10 10 10 10 10 10 11 11 10 9 9 9 9 10 11 11 9 9 10 10 10 9 9 9 8 8 9 10 10 10 11
11 11 11 11 11 11 11 11 11 10 10 10 10 10 10 10 11 12 13 15 16 17 19 19 18 18 19 19 20 19 19 19 18 17 16 15 14 13 12 11 10 10 9 9 10 10 9 9 8 8 8 8 8 9 10 10 9 9 10 10 11 10 10 9 8 9 9 9 10 10 9 8 8 9 9 8 7 8 7 7 8 8 9 9 10
11 11 11 11 11 10 10 11 11 11 11 10 10 11 11 10 11 12 13 14 15 15 17 18 18 17 17 17 17 17 16 16 15 15 14 13 13 12 11 10 9 9 9 9 9 9 8 8 7 7 7 7 7 7 9 9 9 10 10 10 10 10 9 8 7 8 9 9 9 10 9 7 7 7 9 8 7 7 6 6 7 7 7 8 9
12 12 11 11 11 10 10 11 11 11 11 11 11 11 11 11 11 11 12 13 13 14 14 15 15 15 15 15 14 14 13 13 12 12 11 11 11 10 9 9 8 8 8 7 7 8 7 6 6 6 6 5 5 6 7 8 9 9 10 10 9 9 8 7 7 7 8 8 9 9 8 7 8 7 7 8 7 6 4 3 4 5 6 6 7
13 12 11 11 11 11 11 12 12 12 11 11 11 11 11 11 11 11 11 12 12 12 12 12 12 12 12 12 11 11 10 10 9 8 8 8 8 8 8 7 7 6 6 6 6 6 6 6 5 5 5 5 5 6 6 8 8 8 9 9 7 7 8 8 7 7 8 8 8 8 7 7 8 8 7 7 4 4 3 1 3 2 3 4 5
13 12 12 12 12 12 13 13 13 13 12 11 11 11 11 11 11 11 11 11 11 11 11 11 10 10 10 9 9 8 8 7 6 6 5 5 5 5 5 5 5 5 5 5 5 5 5 5 5 4 5 5 5 6 6 7 8 8 7 7 7 6 8 9 8 8 8 8 7 6 5 5 6 6 7 5 3 2 3 3 5 4 2 2 4
14 14 13 12 12 13 13 13 13 13 12 12 11 11 11 11 11 11 11 11 11 10 10 9 9 8 8 7 7 7 6 5 4 4 3 3 3 3 3 3 3 3 3 4 5 5 5 5 4 4 4 5 5 6 7 7 8 8 6 6 6 6 6 7 8 9 9 8 7 6 5 4 4 3 4 4 4 5 5 5 5 5 6 6 4
15 15 14 13 12 13 14 14 13 14 13 12 11 11 11 11 11 11 11 10 10 10 9 9 8 7 7 6 5 5 4 4 3 3 3 2 2 2 2 2 2 2 3 4 5 5 5 5 4 4 4 4 4 5 6 7 7 7 6 5 5 5 6 6 7 8 8 7 6 6 5 3 3 2 2 3 3 4 5 5 4 4 4 5 5
16 16 15 14 13 13 13 14 14 13 13 13 12 12 12 12 11 11 11 10 10 10 10 9 8 7 6 6 5 4 3 3 3 2 2 2 2 2 1 2 2 2 2 3 4 5 5 5 4 4 4 4 4 4 5 6 7 6 5 5 5 5 6 7 7 8 7 7 6 6 5 3 2 2 1 2 4 4 4 4 3 3 3 4 7
17 16 16 15 14 13 13 14 14 13 14 14 14 13 13 12 11 11 11 11 11 10 10 9 8 7 6 5 4 3 2 2 2 2 2 2 2 2 2 2 2 2 2 3 4 5 5 5 5 4 4 4 4 4 5 5 6 5 5 4 5 5 5 6 7 7 7 7 6 5 4 4 3 2 2 4 5 5 5 4 2 3 4 5 7
17 17 16 17 16 15 14 14 14 14 14 15 15 14 13 13 12 11 11 11 10 10 9 8 8 7 6 5 4 3 2 1 1 1 1 2 2 3 3 3 3 3 3 4 4 5 5 5 5 4 4 4 4 4 5 5 5 5 4 4 4 3 4 5 5 6 6 6 6 5 5 5 4 3 3 5 6 7 7 6 2 2 3 3 5
18 18 18 18 18 17 16 15 15 15 15 16 16 15 14 13 12 12 11 10 9 9 9 8 7 7 6 5 4 3 2 1 1 0 0 2 3 3 3 4 4 4 4 5 5 5 5 4 4 4 4 3 4 4 5 5 5 5 5 4 3 3 3 4 4 5 5 5 5 5 6 6 6 4 5 5 6 7 8 8 5 3 3 4 3
19 19 19 19 19 18 17 16 15 16 16 17 17 16 15 14 13 12 12 11 10 9 9 9 8 7 6 5 4 3 2 1 1 0 1 2 3 3 4 4 4 4 4 5 5 5 5 4 4 3 3 3 3 4 4 5 5 5 5 5 4 4 4 4 4 4 4 5 6 6 6 7 6 5 6 6 5 7 8 9 7 3 2 4 4
21 20 20 19 19 19 18 17 16 16 17 17 17 16 16 15 14 13 12 11 10 9 9 9 8 7 6 6 5 4 4 3 2 2 1 2 3 3 4 4 4 4 4 5 5 5 5 4 3 3 3 3 3 3 4 4 5 5 6 5 5 4 4 4 4 4 4 5 6 6 6 6 6 5 7 7 5 6 8 9 8 5 3 4 4
Wind_Direction
105 102 102 103 103 105 107 112 114 113 116 120 121 126 131 136 141 147 145 140 144 150 155 161 170 173 158 140 145 160 170 169 170 174 167 156 154 157 153 148 141 131 124 122 115 108 101 96 93 93 93 92 93 96 98 96 91 86 83 84 85 85 86 91 96 97 96 94 90 88 84 80 76 70 66 61 56 51 48 45 45 40 36 35 29
105 104 104 107 107 107 109 111 111 114 119 120 120 124 128 135 143 147 144 140 143 148 154 160 166 166 150 140 153 164 167 167 167 168 166 161 159 158 154 150 144 132 127 123 115 109 102 97 97 97 97 95 94 96 98 95 91 85 84 86 86 89 94 98 100 99 96 93 87 82 79 75 70 65 62 57 51 48 46 45 44 37 33 35 32
108 107 106 107 107 108 111 113 116 120 119 119 120 120 125 134 144 149 143 138 140 145 152 157 163 166 155 150 160 167 168 168 164 164 165 162 162 162 158 156 150 139 132 125 117 111 105 102 101 101 101 97 93 93 93 92 89 87 89 88 88 97 102 102 100 98 93 88 83 79 74 70 67 63 58 54 50 47 44 40 39 39 43 47 47
110 110 109 107 106 110 114 118 121 123 122 122 122 122 128 136 146 151 143 138 138 143 153 161 166 168 165 160 167 170 167 169 164 160 164 164 164 163 162 159 153 145 136 131 125 117 111 108 106 105 103 99 94 91 90 89 88 93 96 94 98 103 104 104 102 98 91 84 79 74 71 67 63 59 56 52 48 45 45 47 51 55 57 55 52
108 110 111 109 107 108 109 114 119 121 122 123 124 126 132 141 148 150 145 139 136 142 159 172 173 172 173 174 174 170 165 168 165 160 164 168 165 163 166 163 157 151 142 137 130 123 120 116 111 108 105 100 96 95 94 92 93 98 99 102 106 107 105 104 100 93 86 80 75 73 69 64 60 57 55 52 52 55 59 62 61 61 58 55 52
101 103 107 107 104 102 103 108 113 114 115 117 120 127 135 144 151 154 158 156 150 156 172 181 178 174 175 178 175 168 166 167 164 162 163 168 166 167 168 166 167 160 151 148 138 128 125 119 112 110 108 104 101 101 100 98 100 103 104 108 109 107 106 101 94 87 81 77 74 72 67 62 59 56 57 61 65 68 68 65 63 61 60 57 54
100 100 100 99 99 100 103 105 102 100 100 104 109 118 130 141 153 163 177 185 176 176 185 186 183 178 173 175 173 167 170 169 165 166 165 169 170 171 171 169 172 164 157 153 144 137 130 124 117 113 111 107 106 106 104 104 104 106 108 111 109 108 104 97 90 83 79 77 73 68 65 62 59 61 68 73 72 72 69 67 65 62 60 57 52
101 100 99 97 98 100 100 95 90 88 90 95 100 104 109 118 139 158 179 200 199 196 195 192 192 188 177 172 171 167 170 169 171 176 172 172 175 176 174 170 170 167 165 156 148 143 137 131 124 120 115 112 112 112 109 109 109 109 112 114 113 110 103 95 87 78 76 75 70 67 65 63 65 72 76 77 75 73 71 68 65 62 58 52 47
98 97 97 97 96 92 87 83 83 85 91 95 96 94 96 108 122 147 176 200 211 211 204 200 201 197 183 176 172 167 167 170 176 188 184 177 180 181 176 171 172 174 167 157 155 147 139 134 128 124 119 116 115 114 113 113 114 115 117 117 115 108 101 94 85 78 77 73 69 67 65 68 75 79 79 78 76 73 71 67 64 60 55 48 42
99 100 97 93 88 82 79 79 84 87 89 90 93 97 106 119 130 147 175 198 209 215 214 214 211 203 193 186 181 169 165 177 188 194 193 185 187 189 181 172 175 180 161 155 165 148 137 134 129 125 122 119 117 116 116 116 118 120 120 118 113 107 100 93 84 80 76 73 70 67 71 78 82 82 80 78 75 72 69 66 62 57 52 46 41
102 104 98 91 85 80 79 81 86 88 87 87 92 102 115 123 128 140 159 186 191 185 197 214 216 212 205 195 187 177 174 187 197 199 202 193 193 197 189 179 178 182 160 155 165 142 132 131 127 127 126 122 119 118 118 119 122 123 122 118 113 107 100 92 86 80 75 74 72 73 80 85 85 83 80 76 74 71 68 64 60 56 50 46 43
101 99 94 89 83 80 81 83 87 89 92 95 100 108 116 119 115 118 121 121 107 100 124 187 214 218 214 201 186 189 191 195 201 205 213 204 196 200 196 189 182 181 160 152 159 139 131 130 127 129 129 123 120 120 120 123 125 125 122 118 113 107 100 92 87 81 78 76 76 83 88 88 85 82 79 76 73 70 67 63 58 53 49 47 46
98 95 91 87 84 84 86 87 91 93 96 104 110 113 112 106 100 98 99 84 71 71 77 89 189 226 225 206 189 198 202 202 203 207 217 212 202 200 199 196 186 180 155 145 154 138 132 130 128 130 128 124 121 122 123 126 127 125 122 117 113 107 99 92 88 84 80 78 83 90 91 88 85 81 78 75 73 69 66 61 56 52 50 49 48
98 95 92 91 90 91 93 96 100 100 105 113 109 105 99 89 86 93 95 77 67 69 75 77 104 236 230 198 189 203 208 207 206 207 214 213 207 200 198 197 186 176 148 139 150 135 131 131 129 130 127 125 123 123 127 130 129 125 122 117 114 107 99 93 89 86 82 82 89 93 90 87 84 81 78 75 72 68 64 60 56 53 52 51 48
103 100 97 94 92 92 96 103 106 109 116 118 102 85 70 65 63 69 76 79 75 70 77 99 118 12 197 171 174 195 206 208 206 204 210 212 208 199 194 191 180 165 140 139 150 134 131 131 130 130 128 126 125 128 132 132 129 124 120 117 113 106 99 94 89 87 85 90 95 93 90 87 84 81 78 75 71 67 64 60 57 56 55 53 50
105 100 95 92 92 92 98 109 112 116 118 107 91 76 62 57 58 69 75 80 85 87 116 133 106 77 98 154 146 161 180 193 194 190 198 203 200 190 182 180 170 153 140 146 148 133 130 130 130 130 128 128 129 133 135 131 126 122 120 118 112 105 100 94 89 88 92 96 96 94 91 87 84 80 77 74 71 68 64 61 59 59 57 54 51
103 94 89 89 91 93 99 110 114 111 105 92 83 79 73 68 68 78 84 87 96 110 145 112 81 82 98 123 117 123 152 176 172 168 177 181 177 170 167 170 164 150 144 149 142 131 131 132 131 129 128 129 132 136 135 130 126 123 122 118 110 104 98 94 89 90 96 98 97 94 91 87 84 80 77 74 71 69 66 64 62 61 58 55 52
103 97 90 89 92 96 107 111 111 102 89 76 74 81 86 87 77 73 82 88 96 102 106 87 79 82 86 94 99 106 139 159 145 146 153 156 158 154 156 159 154 149 145 143 138 133 133 134 132 130 129 131 135 136 133 129 127 125 122 116 109 103 97 94 92 94 99 99 98 96 92 88 84 80 77 74 72 71 69 66 63 61 59 56 53
102 101 98 97 96 98 110 107 101 94 84 79 78 80 85 86 79 70 72 80 87 90 94 88 81 81 80 85 90 96 120 134 125 129 135 142 149 148 149 148 145 144 140 138 137 134 135 135 132 131 131 134 136 134 131 129 127 126 120 113 107 101 97 95 94 97 101 101 100 98 93 89 84 81 78 75 74 72 69 66 63 61 59 57 54
99 100 101 103 101 97 98 96 95 94 88 92 90 88 88 88 83 75 72 80 86 89 92 89 82 82 84 88 92 95 107 117 115 120 129 135 144 145 145 143 141 140 138 137 136 135 135 135 133 132 133 135 135 133 130 128 127 124 118 113 107 100 97 95 96 101 104 103 102 99 94 89 85 82 79 76 73 70 67 64 62 60 58 56 54
99 99 101 99 96 94 95 97 99 97 86 77 88 95 97 95 92 86 83 87 90 89 88 87 86 86 89 92 93 94 98 103 104 110 121 127 133 137 136 136 136 136 137 138 136 134 135 134 133 133 134 135 135 133 131 129 127 123 117 112 105 100 98 96 99 105 107 106 103 99 94 89 86 83 79 76 73 70 68 65 62 60 58 56 54
102 100 98 96 92 91 95 101 101 99 95 82 85 100 103 101 97 92 88 88 91 91 87 84 86 88 91 93 92 94 95 95 98 103 111 117 122 126 128 130 132 134 136 136 134 133 133 133 133 134 135 136 136 133 131 129 127 123 118 110 103 101 99 98 103 108 109 107 104 99 94 90 88 85 80 76 73 71 68 65 63 59 57 54 53
105 102 98 97 95 94 95 97 100 98 97 90 78 92 100 97 94 92 92 94 94 91 88 85 87 89 92 93 94 95 94 93 98 103 107 111 116 119 122 125 128 131 133 133 132 131 132 131 132 134 135 136 135 132 131 130 127 124 117 108 104 103 100 101 107 111 110 108 104 99 95 93 90 86 81 77 74 71 67 65 61 59 55 53 52
106 103 99 99 99 98 98 99 104 104 105 108 98 87 89 86 89 94 93 97 98 92 90 90 90 92 94 97 97 95 93 94 100 105 107 111 114 117 121 123 125 128 130 131 130 129 130 131 132 135 136 136 134 131 131 130 127 123 115 109 105 104 102 104 109 112 111 108 104 100 97 95 92 88 83 79 74 69 66 63 60 57 55 53 51
108 104 99 99 102 102 102 106 115 120 120 122 117 105 98 94 99 101 94 93 96 93 92 93 95 95 96 98 98 96 96 98 102 105 107 110 113 116 120 123 125 126 128 129 129 130 131 132 134 137 137 137 133 131 132 130 127 122 114 109 105 105 104 105 110 113 111 109 106 102 99 97 95 91 86 80 74 69 65 63 60 57 55 52 50
109 104 100 98 100 104 105 107 111 114 112 110 103 99 99 99 101 99 95 94 94 91 89 91 96 98 98 99 100 100 100 101 103 104 107 111 112 114 117 120 122 124 127 129 130 131 132 132 134 137 138 135 132 132 132 130 127 121 113 109 106 106 105 106 111 114 112 111 108 104 101 99 97 92 87 80 74 69 66 63 60 57 55 52 51
110 104 102 101 99 100 103 104 103 104 103 103 99 92 86 85 89 89 87 89 91 90 87 89 93 99 103 104 106 106 104 104 106 106 108 113 114 114 116 118 121 124 127 130 131 132 132 133 135 138 137 134 132 134 133 132 128 121 113 109 108 107 105 106 112 114 114 113 110 106 103 101 98 93 88 82 76 71 68 64 61 58 56 54 52
115 110 106 105 101 98 103 105 104 104 106 107 104 98 90 83 82 81 79 82 90 90 87 89 93 99 104 107 108 108 109 110 110 109 110 114 117 117 118 121 124 127 129 131 132 134 134 136 139 139 136 134 135 136 135 133 129 120 114 111 109 108 106 108 113 116 117 116 112 108 105 102 99 95 89 84 78 74 70 66 63 60 58 56 54
118 115 110 106 104 101 105 111 111 109 111 112 108 104 100 95 86 82 79 78 87 92 91 94 98 101 104 108 108 107 110 111 109 110 112 114 115 117 122 125 128 130 131 133 134 136 136 138 139 137 136 136 137 137 135 132 127 119 114 112 110 108 107 110 115 119 120 118 115 111 107 104 100 96 91 86 81 77 73 69 65 63 60 57 55
123 119 114 110 106 104 106 112 116 115 117 117 112 108 105 103 96 92 90 83 85 91 94 99 103 105 109 111 110 108 108 107 106 110 113 115 117 121 126 129 131 133 134 135 136 135 135 136 137 136 136 138 139 137 133 130 126 119 114 112 110 107 108 112 117 121 122 120 118 114 110 107 102 98 92 88 84 80 77 72 69 65 62 59 56
129 125 120 115 111 109 109 112 118 121 124 122 117 115 109 104 99 97 99 95 95 96 97 101 104 108 111 112 112 111 109 107 108 111 115 119 122 126 128 129 132 134 134 135 134 133 133 134 135 136 139 141 140 136 132 130 126 119 114 113 110 107 108 112 117 122 124 123 120 116 113 109 104 99 95 91 87 84 80 75 71 67 64 61 58
133 131 125 120 118 115 113 113 118 124 126 126 124 121 114 107 102 99 99 101 104 106 105 105 107 108 110 111 113 114 112 111 111 113 116 119 121 124 126 127 129 131 132 133 131 131 131 134 137 139 142 142 139 134 130 128 124 118 115 114 110 108 110 113 117 122 125 125 123 120 117 112 107 103 99 95 92 88 84 79 73 69 67 63 60
138 134 130 126 122 119 119 118 121 126 129 129 127 123 117 112 107 104 102 104 107 109 110 110 111 112 112 114 116 117 116 115 116 116 118 120 121 123 125 126 128 130 129 129 129 131 134 137 139 139 140 139 136 133 130 127 122 118 117 115 111 108 111 115 118 123 126 128 126 123 120 115 111 108 105 101 97 93 88 82 77 72 69 65 62
142 138 135 133 128 124 122 123 125 128 130 129 126 122 119 116 112 110 109 110 113 115 116 115 115 116 117 119 119 118 118 118 118 119 121 122 124 125 126 128 128 128 128 129 133 135 137 139 138 136 133 133 134 132 129 126 122 119 118 115 113 111 113 117 120 123 128 130 128 126 124 121 118 114 111 108 104 99 93 87 81 76 71 67 64
147 144 143 141 135 131 127 127 129 130 131 130 128 123 120 119 116 116 116 115 116 117 118 118 119 119 120 121 120 119 119 120 120 121 124 125 127 128 129 129 129 131 132 134 137 136 134 133 131 130 129 132 135 132 128 125 124 121 119 115 115 115 115 119 121 123 129 133 133 132 131 128 124 121 119 117 113 107 100 93 86 81 75 70 66
153 151 150 149 143 138 135 132 131 132 132 132 131 128 123 120 118 119 118 117 116 115 115 116 117 117 119 119 118 119 119 120 121 122 124 125 127 128 128 130 132 134 134 133 131 130 129 126 125 125 130 135 137 134 129 125 123 120 120 119 119 119 118 119 122 126 131 136 139 139 137 135 132 131 128 122 119 114 106 98 91 85 79 73 69
158 158 157 156 152 147 143 141 137 135 136 136 135 131 127 123 121 120 118 117 117 116 116 115 115 116 117 117 117 118 119 120 122 122 123 124 125 126 127 130 132 132 132 132 127 127 131 128 127 128 132 136 134 133 128 124 123 120 122 123 122 123 121 121 123 128 134 140 144 141 141 142 140 140 136 127 121 116 108 101 93 86 78 71 68
162 164 163 162 162 157 150 145 142 139 139 138 139 136 133 129 126 123 120 120 120 119 118 118 117 117 117 118 118 119 120 121 122 122 123 124 124 124 125 127 129 127 128 131 129 132 137 132 132 131 129 131 132 133 127 123 125 125 126 125 125 127 125 123 124 130 138 146 144 139 143 151 148 143 138 134 126 120 114 105 96 87 77 68 65
165 167 168 166 167 165 156 149 145 143 143 142 144 144 140 137 132 127 125 124 124 122 121 120 119 119 119 120 120 120 121 122 122 123 123 124 123 124 125 126 129 128 130 138 140 140 138 132 133 128 121 126 134 136 130 128 129 130 132 131 131 132 132 130 130 135 144 149 141 141 153 160 155 148 143 148 139 129 129 118 105 93 81 72 66
169 169 170 170 170 170 162 153 150 148 148 148 149 149 147 145 140 135 132 129 129 127 125 125 123 123 123 122 122 123 124 125 126 127 127 127 126 126 126 126 131 134 137 145 144 137 135 132 134 128 119 124 136 141 139 136 136 138 139 138 138 137 134 134 137 140 146 150 144 147 159 158 159 160 154 159 153 142 144 129 117 109 94 82 75
174 171 172 172 170 172 171 162 158 157 155 153 152 154 153 152 148 144 141 138 137 135 132 131 129 129 129 127 127 128 128 129 130 130 130 129 127 126 125 126 127 129 132 136 132 130 132 130 131 133 132 134 143 149 146 143 144 147 147 148 147 138 132 138 144 142 145 151 148 148 154 159 170 176 172 174 164 151 146 124 130 132 114 97 87
180 174 173 174 171 174 179 173 166 165 162 159 156 157 158 157 155 153 151 149 146 145 142 139 137 136 135 134 132 131 131 130 129 129 128 128 127 126 127 124 121 117 116 117 119 124 129 127 132 141 143 149 152 151 153 151 151 154 155 155 148 138 139 146 148 143 146 153 153 151 152 164 177 178 189 198 172 148 145 148 239 219 127 109 93
186 180 176 176 176 177 183 182 174 171 168 165 161 159 162 162 161 160 160 159 156 155 154 150 148 146 144 142 139 137 135 133 132 130 129 128 126 127 125 120 117 112 107 108 115 123 129 132 143 147 141 149 154 154 160 158 154 158 164 159 145 140 145 146 145 145 149 153 155 155 150 167 184 180 190 198 165 182 205 216 250 277 338 40 63
189 187 183 180 181 181 185 187 181 177 173 171 167 164 164 165 166 167 166 166 165 164 164 161 159 159 157 155 151 147 144 142 140 138 140 138 134 129 121 120 121 116 112 114 119 126 133 138 146 148 140 146 154 159 165 163 160 162 166 161 149 143 140 137 140 146 150 153 158 162 157 172 190 183 192 197 185 202 215 224 250 301 338 347 4
193 191 189 186 187 187 187 190 188 182 178 175 172 170 170 170 170 170 170 172 172 170 169 170 170 169 168 167 164 159 154 152 150 149 156 159 160 150 138 139 138 130 125 124 127 130 135 141 145 151 149 150 152 161 168 168 168 167 165 165 152 138 134 134 138 145 150 154 161 167 168 179 194 191 201 215 214 214 221 234 261 308 332 321 304
197 194 192 190 193 194 192 192 191 186 180 178 179 178 177 177 176 173 172 175 178 176 174 173 174 174 173 174 174 173 170 167 165 166 174 179 183 178 171 162 151 152 143 134 136 136 139 146 150 154 155 155 156 164 174 175 174 173 169 164 157 148 145 144 143 148 154 157 166 175 179 188 206 221 237 252 249 243 245 245 258 275 272 267 271
200 197 195 194 197 201 198 196 193 188 184 182 184 185 183 182 182 178 178 181 183 183 178 175 174 174 177 180 180 184 187 189 187 190 189 182 185 186 177 167 167 173 163 149 146 141 142 150 154 158 161 160 161 167 178 181 181 181 177 170 170 169 158 150 151 157 160 164 173 182 189 200 218 235 258 279 277 270 268 257 223 239 251 259 274
202 199 198 197 200 203 203 199 194 191 190 187 187 188 188 187 185 185 188 187 187 189 186 184 182 179 182 185 185 188 196 227 234 224 189 167 169 168 162 163 169 174 169 157 151 146 147 151 155 163 172 167 167 175 180 187 191 189 188 188 187 185 175 166 166 166 166 171 181 189 198 207 218 231 250 276 288 290 287 285 285 273 273 274 277
203 201 201 201 202 205 205 202 196 194 196 194 190 188 189 190 188 190 194 188 187 194 194 194 194 191 193 193 192 199 202 221 247 282 142 147 149 146 146 156 165 170 169 162 156 154 153 157 160 168 179 178 177 186 187 189 199 196 195 203 204 200 194 186 184 182 177 178 189 201 212 219 223 234 249 264 289 298 296 299 314 332 324 314 289
204 204 203 203 205 207 208 206 200 197 199 200 196 191 190 192 190 191 194 189 189 195 196 197 199 200 203 200 198 203 204 208 214 222 161 144 139 136 141 154 164 166 167 164 161 161 161 166 170 172 186 195 194 200 199 197 203 205 205 209 210 210 202 195 197 200 196 194 201 208 216 227 231 239 248 253 272 287 291 297 304 313 321 314 311
204 208 207 204 206 209 209 209 205 201 202 204 203 197 194 194 194 194 196 196 197 198 197 198 200 202 205 207 207 207 206 207 204 200 188 162 148 143 146 154 161 166 169 168 167 169 171 177 182 185 194 206 210 212 209 206 208 211 216 216 215 216 212 209 211 214 214 216 221 221 220 230 235 239 247 251 267 281 283 289 298 314 335 328 331
Height
5899 5899 5899 5899 5899 5899 5899 5900 5900 5900 5901 5901 5901 5902 5902 5902 5902 5902 5903 5905 5906 5906 5906 5906 5906 5905 5905 5905 5906 5906 5906 5906 5906 5907 5908 5908 5908 5908 5908 5908 5909 5909 5910 5910 5911 5911 5912 5912 5912 5912 5912 5913 5913 5913 5913 5913 5914 5914 5914 5914 5914 5913 5913 5913 5913 5912 5912 5912 5912 5912 5912 5911 5911 5910 5910 5909 5909 5909 5908 5907 5907 5906 5906 5905 5905
5900 5900 5900 5901 5901 5900 5901 5901 5901 5901 5902 5902 5902 5902 5902 5902 5902 5902 5903 5905 5906 5906 5906 5906 5906 5905 5905 5906 5906 5906 5906 5906 5907 5908 5909 5909 5908 5908 5909 5909 5910 5910 5911 5911 5912 5912 5912 5913 5913 5913 5913 5914 5914 5914 5914 5914 5915 5915 5915 5915 5915 5915 5915 5915 5915 5914 5914 5914 5914 5913 5913 5912 5912 5911 5911 5910 5910 5910 5909 5908 5907 5907 5907 5906 5905
5902 5902 5902 5902 5902 5902 5903 5902 5903 5903 5903 5902 5903 5903 5903 5902 5902 5902 5903 5905 5906 5907 5906 5906 5906 5905 5906 5906 5907 5907 5906 5907 5908 5909 5909 5909 5908 5909 5909 5910 5910 5911 5912 5912 5913 5913 5913 5913 5913 5914 5914 5914 5915 5915 5916 5916 5916 5916 5916 5917 5917 5916 5916 5916 5916 5915 5915 5915 5915 5915 5914 5913 5913 5912 5912 5911 5911 5910 5909 5909 5908 5908 5907 5907 5906
5903 5903 5903 5903 5903 5904 5904 5904 5904 5904 5904 5903 5903 5903 5903 5903 5902 5903 5904 5905 5907 5907 5906 5905 5905 5906 5907 5907 5907 5907 5907 5907 5908 5909 5909 5908 5908 5909 5910 5910 5910 5911 5912 5913 5913 5914 5914 5914 5914 5914 5915 5915 5916 5916 5917 5917 5917 5917 5917 5918 5918 5918 5917 5917 5917 5916 5916 5916 5916 5916 5915 5915 5914 5914 5913 5912 5912 5911 5911 5910 5910 5909 5908 5908 5907
5904 5904 5904 5904 5904 5905 5904 5904 5905 5905 5904 5904 5904 5904 5904 5903 5903 5904 5905 5906 5907 5907 5906 5905 5905 5906 5907 5908 5908 5908 5908 5908 5909 5909 5909 5908 5909 5909 5910 5910 5911 5911 5912 5913 5913 5914 5915 5915 5915 5915 5915 5916 5916 5917 5918 5918 5918 5918 5918 5919 5919 5919 5918 5918 5918 5918 5917 5917 5917 5917 5916 5916 5915 5915 5914 5913 5913 5912 5912 5911 5911 5910 5909 5908 5907
5904 5904 5904 5905 5905 5904 5905 5905 5905 5904 5904 5904 5904 5904 5904 5904 5904 5904 5905 5906 5906 5906 5905 5904 5905 5906 5908 5908 5909 5909 5908 5909 5909 5910 5909 5909 5910 5911 5911 5911 5911 5911 5912 5913 5914 5915 5915 5916 5916 5916 5916 5917 5917 5918 5919 5919 5919 5920 5920 5920 5920 5920 5919 5919 5919 5919 5919 5919 5919 5918 5917 5917 5917 5916 5915 5915 5914 5914 5913 5913 5912 5911 5910 5909 5908
5905 5905 5905 5905 5905 5905 5905 5905 5904 5904 5903 5904 5904 5904 5904 5904 5904 5904 5905 5905 5905 5905 5905 5905 5905 5907 5908 5909 5909 5909 5909 5910 5910 5910 5910 5910 5911 5912 5912 5912 5912 5912 5912 5913 5914 5915 5916 5916 5917 5917 5918 5918 5918 5919 5919 5920 5921 5921 5921 5921 5921 5921 5921 5921 5921 5921 5920 5920 5920 5919 5919 5918 5918 5917 5917 5916 5916 5915 5914 5914 5913 5912 5911 5910 5909
5906 5906 5905 5905 5905 5905 5905 5905 5904 5904 5904 5904 5904 5904 5904 5904 5904 5904 5904 5904 5904 5904 5905 5906 5906 5907 5908 5909 5909 5909 5910 5910 5910 5909 5910 5910 5911 5911 5912 5912 5913 5914 5914 5915 5915 5915 5916 5917 5917 5918 5919 5919 5919 5920 5920 5921 5922 5922 5922 5922 5922 5922 5922 5922 5922 5922 5922 5921 5921 5920 5920 5920 5919 5919 5918 5917 5917 5917 5916 5915 5914 5913 5912 5911 5910
5907 5906 5906 5906 5906 5905 5905 5905 5904 5904 5904 5904 5904 5904 5904 5904 5904 5904 5904 5903 5903 5904 5905 5906 5906 5907 5908 5908 5909 5909 5910 5911 5909 5908 5908 5910 5910 5911 5912 5913 5914 5915 5915 5916 5916 5916 5917 5917 5918 5919 5920 5920 5920 5921 5921 5922 5923 5923 5923 5924 5924 5924 5924 5924 5923 5923 5923 5922 5922 5921 5921 5921 5920 5920 5919 5919 5919 5918 5917 5916 5916 5915 5914 5912 5911
5907 5906 5906 5906 5906 5906 5906 5905 5905 5904 5904 5905 5905 5904 5904 5904 5904 5904 5903 5903 5903 5905 5905 5906 5906 5907 5908 5908 5908 5910 5912 5911 5908 5907 5909 5910 5911 5911 5913 5914 5915 5916 5916 5918 5918 5917 5917 5918 5919 5920 5921 5921 5921 5922 5922 5923 5924 5924 5924 5925 5925 5925 5925 5925 5924 5924 5924 5923 5923 5923 5923 5922 5922 5921 5921 5920 5920 5919 5918 5918 5917 5916 5915 5913 5912
5907 5907 5907 5907 5907 5907 5907 5906 5905 5905 5905 5905 5905 5904 5904 5904 5904 5904 5903 5903 5904 5905 5906 5906 5906 5907 5907 5908 5909 5911 5912 5911 5909 5908 5910 5912 5912 5913 5915 5915 5916 5917 5917 5918 5920 5918 5918 5918 5919 5921 5921 5922 5923 5923 5923 5924 5925 5925 5926 5926 5927 5926 5926 5926 5925 5925 5925 5924 5924 5925 5924 5924 5923 5923 5922 5922 5921 5920 5920 5919 5918 5917 5915 5914 5913
5908 5908 5908 5908 5908 5908 5907 5906 5906 5906 5905 5905 5905 5905 5905 5905 5905 5905 5904 5904 5905 5906 5906 5906 5906 5906 5907 5908 5910 5910 5911 5910 5910 5910 5911 5912 5914 5915 5916 5917 5917 5917 5917 5918 5921 5919 5918 5919 5920 5921 5923 5924 5924 5924 5925 5925 5926 5926 5927 5928 5928 5928 5927 5927 5927 5926 5926 5926 5926 5926 5926 5925 5925 5924 5923 5923 5923 5922 5921 5920 5919 5918 5917 5916 5915
5908 5909 5909 5909 5909 5908 5907 5907 5907 5907 5906 5905 5905 5905 5906 5906 5906 5905 5905 5905 5906 5907 5907 5907 5906 5906 5907 5909 5910 5910 5909 5910 5911 5911 5912 5913 5914 5915 5917 5918 5918 5918 5918 5919 5921 5919 5919 5920 5921 5923 5924 5925 5925 5926 5926 5927 5927 5928 5928 5929 5929 5929 5929 5929 5928 5928 5928 5928 5928 5927 5927 5927 5926 5926 5925 5925 5924 5923 5923 5921 5920 5919 5918 5917 5917
5910 5910 5910 5910 5910 5909 5908 5908 5908 5907 5906 5905 5905 5906 5907 5907 5906 5905 5905 5906 5908 5908 5908 5907 5907 5907 5907 5909 5910 5909 5909 5910 5912 5912 5913 5914 5914 5915 5916 5917 5918 5919 5918 5919 5922 5920 5919 5921 5922 5924 5925 5926 5926 5927 5928 5928 5929 5929 5930 5930 5930 5930 5930 5930 5930 5929 5929 5929 5929 5929 5929 5929 5928 5927 5927 5926 5926 5925 5924 5923 5922 5921 5920 5919 5918
5911 5911 5911 5911 5911 5910 5910 5909 5908 5908 5907 5906 5906 5907 5908 5909 5907 5906 5906 5908 5909 5909 5908 5907 5907 5907 5908 5910 5910 5910 5909 5910 5912 5913 5913 5914 5914 5915 5916 5917 5918 5919 5918 5919 5921 5920 5920 5922 5923 5925 5926 5927 5928 5929 5930 5930 5930 5931 5932 5932 5932 5932 5931 5932 5932 5931 5931 5931 5931 5931 5931 5930 5929 5929 5928 5928 5927 5926 5925 5925 5924 5923 5922 5921 5920
5912 5912 5911 5912 5912 5911 5910 5910 5909 5908 5907 5907 5908 5909 5911 5910 5907 5907 5909 5910 5910 5909 5908 5908 5908 5909 5909 5910 5910 5910 5910 5910 5911 5913 5913 5913 5914 5915 5916 5917 5918 5919 5919 5920 5922 5921 5922 5923 5925 5926 5927 5928 5929 5930 5931 5932 5932 5933 5933 5933 5933 5933 5933 5933 5933 5933 5932 5932 5932 5932 5932 5932 5931 5931 5930 5930 5929 5928 5927 5927 5926 5925 5924 5923 5922
5913 5913 5912 5912 5913 5912 5911 5911 5909 5908 5908 5908 5910 5912 5912 5909 5907 5908 5910 5911 5910 5909 5908 5909 5910 5910 5910 5910 5910 5911 5911 5910 5912 5913 5913 5913 5913 5915 5916 5917 5918 5919 5919 5922 5923 5922 5923 5925 5926 5927 5929 5930 5931 5932 5933 5933 5934 5935 5935 5935 5935 5935 5934 5934 5935 5935 5934 5934 5934 5934 5934 5933 5933 5932 5932 5931 5930 5930 5929 5929 5928 5927 5926 5925 5924
5914 5914 5913 5913 5913 5913 5912 5912 5910 5909 5910 5910 5913 5914 5913 5910 5908 5909 5911 5912 5911 5910 5910 5911 5912 5912 5911 5911 5911 5911 5911 5911 5912 5913 5913 5913 5914 5915 5916 5917 5918 5919 5921 5922 5923 5923 5925 5927 5928 5928 5930 5931 5933 5934 5934 5935 5936 5936 5937 5937 5936 5936 5936 5936 5936 5936 5935 5935 5935 5936 5935 5935 5934 5934 5934 5933 5932 5932 5931 5931 5930 5928 5927 5927 5926
5915 5916 5915 5914 5914 5914 5913 5913 5912 5911 5911 5912 5914 5915 5913 5911 5910 5910 5911 5912 5912 5911 5912 5912 5913 5913 5912 5912 5912 5911 5911 5911 5912 5913 5914 5914 5914 5915 5917 5918 5919 5920 5922 5923 5924 5925 5926 5928 5928 5929 5931 5933 5934 5935 5936 5937 5938 5938 5938 5938 5938 5937 5937 5937 5937 5937 5937 5937 5937 5937 5937 5936 5936 5936 5935 5935 5934 5934 5933 5932 5931 5930 5929 5929 5928
5916 5917 5916 5916 5916 5916 5915 5914 5914 5913 5912 5912 5915 5916 5914 5913 5912 5912 5913 5913 5913 5912 5912 5913 5913 5913 5913 5913 5912 5911 5912 5912 5912 5913 5914 5914 5915 5916 5917 5918 5920 5921 5923 5924 5925 5926 5928 5929 5930 5931 5932 5934 5936 5937 5938 5938 5939 5939 5939 5940 5939 5939 5938 5938 5938 5938 5938 5938 5939 5939 5938 5938 5937 5937 5937 5936 5936 5935 5935 5934 5933 5932 5931 5930 5929
5917 5918 5917 5917 5917 5917 5916 5916 5916 5914 5913 5912 5915 5916 5915 5914 5913 5914 5914 5915 5914 5914 5914 5915 5915 5915 5914 5914 5913 5912 5913 5913 5913 5914 5914 5914 5915 5916 5917 5919 5920 5922 5924 5925 5926 5928 5929 5930 5931 5932 5934 5935 5937 5938 5939 5940 5940 5941 5941 5941 5940 5940 5939 5939 5939 5940 5940 5940 5940 5940 5940 5939 5939 5939 5939 5938 5938 5937 5937 5936 5935 5934 5933 5932 5931
5918 5919 5919 5918 5918 5918 5918 5917 5917 5916 5915 5914 5915 5916 5916 5915 5915 5915 5916 5916 5916 5916 5917 5917 5917 5916 5916 5915 5914 5914 5915 5914 5914 5914 5914 5915 5916 5917 5918 5919 5921 5923 5925 5927 5928 5929 5931 5932 5933 5934 5935 5937 5938 5939 5940 5941 5941 5942 5942 5942 5942 5941 5941 5941 5941 5941 5942 5942 5941 5941 5941 5941 5941 5941 5940 5940 5940 5940 5939 5938 5937 5936 5935 5934 5933
5920 5920 5920 5919 5919 5919 5919 5919 5918 5918 5917 5916 5915 5916 5916 5916 5916 5916 5917 5918 5917 5918 5918 5918 5918 5918 5917 5917 5916 5916 5916 5916 5916 5916 5916 5917 5917 5918 5920 5921 5922 5924 5927 5928 5930 5931 5932 5933 5935 5936 5937 5938 5939 5940 5942 5942 5942 5943 5943 5943 5943 5943 5942 5943 5943 5943 5943 5943 5943 5942 5942 5942 5943 5943 5942 5942 5942 5941 5941 5940 5938 5938 5937 5936 5935
5921 5921 5921 5921 5921 5921 5921 5920 5920 5919 5919 5918 5917 5916 5916 5916 5917 5918 5919 5918 5918 5919 5919 5920 5920 5920 5920 5919 5918 5918 5917 5917 5917 5917 5918 5919 5920 5921 5922 5923 5924 5926 5928 5930 5931 5932 5933 5935 5937 5938 5939 5940 5941 5942 5943 5943 5944 5944 5944 5944 5944 5944 5944 5944 5944 5944 5944 5944 5944 5944 5944 5944 5944 5944 5944 5944 5944 5943 5942 5941 5940 5940 5939 5938 5937
5921 5922 5922 5922 5922 5922 5922 5922 5922 5921 5921 5921 5920 5919 5919 5920 5919 5919 5920 5920 5919 5920 5921 5922 5922 5922 5922 5921 5920 5920 5920 5920 5920 5920 5920 5921 5922 5923 5925 5925 5926 5928 5930 5932 5933 5934 5935 5937 5938 5940 5941 5942 5942 5943 5944 5944 5945 5945 5945 5945 5945 5945 5945 5945 5945 5946 5945 5945 5945 5946 5946 5946 5946 5946 5946 5946 5946 5945 5944 5943 5942 5942 5941 5940 5939
5922 5923 5922 5922 5923 5923 5923 5923 5923 5922 5922 5922 5921 5921 5921 5922 5921 5920 5921 5922 5921 5921 5922 5923 5923 5923 5924 5923 5922 5922 5923 5923 5922 5923 5923 5923 5924 5925 5927 5927 5928 5930 5932 5934 5935 5936 5938 5939 5940 5941 5942 5943 5943 5944 5945 5945 5946 5946 5946 5946 5946 5946 5946 5946 5947 5947 5947 5947 5947 5947 5947 5948 5948 5948 5948 5948 5948 5947 5946 5945 5944 5943 5942 5942 5940
5923 5923 5923 5923 5923 5923 5923 5923 5923 5923 5922 5923 5923 5922 5922 5922 5922 5922 5922 5923 5922 5922 5923 5924 5924 5924 5925 5925 5925 5924 5925 5925 5926 5926 5926 5926 5926 5927 5928 5929 5931 5932 5934 5936 5937 5938 5940 5940 5942 5943 5944 5944 5944 5945 5946 5946 5946 5947 5947 5947 5947 5947 5947 5947 5948 5948 5948 5948 5948 5948 5949 5949 5950 5950 5950 5950 5950 5949 5948 5947 5946 5945 5944 5943 5942
5925 5924 5924 5924 5924 5924 5924 5924 5924 5924 5924 5924 5924 5924 5923 5923 5923 5923 5923 5923 5924 5924 5924 5925 5925 5925 5926 5926 5926 5926 5928 5928 5928 5929 5929 5929 5928 5929 5930 5932 5933 5934 5936 5938 5938 5940 5941 5942 5943 5944 5945 5945 5946 5946 5946 5947 5947 5948 5948 5948 5948 5948 5948 5949 5949 5949 5949 5949 5950 5950 5950 5951 5951 5952 5952 5952 5951 5951 5950 5949 5948 5947 5946 5945 5944
5926 5925 5925 5925 5925 5925 5925 5925 5925 5925 5925 5925 5925 5925 5925 5925 5924 5924 5924 5925 5925 5926 5926 5927 5927 5927 5927 5927 5927 5928 5929 5930 5930 5931 5931 5931 5931 5931 5932 5934 5936 5937 5938 5940 5941 5941 5942 5943 5945 5945 5946 5946 5947 5947 5948 5948 5948 5949 5949 5949 5949 5949 5949 5949 5950 5950 5950 5950 5951 5951 5952 5952 5953 5953 5953 5953 5953 5952 5952 5951 5950 5949 5948 5947 5946
5927 5927 5926 5926 5927 5927 5926 5926 5926 5926 5927 5927 5927 5927 5927 5927 5926 5926 5926 5926 5926 5926 5928 5928 5929 5929 5929 5929 5929 5929 5930 5931 5932 5933 5934 5934 5934 5935 5936 5938 5939 5940 5941 5942 5943 5943 5944 5945 5946 5946 5947 5948 5948 5948 5949 5949 5949 5950 5950 5950 5950 5950 5950 5951 5951 5951 5951 5952 5952 5953 5953 5953 5954 5954 5955 5955 5954 5954 5953 5952 5952 5951 5950 5949 5947
5927 5927 5927 5927 5928 5928 5928 5928 5928 5928 5928 5928 5928 5928 5928 5928 5928 5928 5928 5928 5927 5928 5928 5929 5929 5930 5930 5930 5931 5931 5931 5932 5933 5934 5935 5936 5937 5938 5939 5940 5941 5942 5943 5944 5944 5945 5945 5946 5947 5948 5949 5950 5949 5949 5949 5950 5950 5951 5951 5951 5951 5951 5951 5952 5952 5952 5952 5953 5953 5954 5954 5955 5955 5956 5956 5956 5956 5955 5955 5954 5953 5952 5951 5950 5949
5928 5929 5928 5929 5929 5929 5929 5929 5929 5929 5929 5929 5929 5929 5929 5930 5930 5930 5930 5930 5930 5930 5930 5930 5930 5931 5931 5932 5932 5933 5933 5934 5935 5936 5937 5938 5939 5940 5941 5942 5943 5943 5944 5945 5945 5946 5947 5948 5949 5950 5951 5951 5950 5950 5950 5951 5951 5952 5952 5952 5952 5952 5952 5953 5954 5954 5954 5954 5955 5955 5956 5956 5957 5957 5957 5957 5957 5957 5956 5956 5955 5954 5953 5952 5951
5929 5930 5930 5930 5930 5930 5930 5930 5930 5930 5930 5930 5930 5930 5931 5931 5931 5931 5931 5931 5931 5931 5932 5932 5932 5932 5933 5933 5934 5935 5935 5936 5937 5938 5938 5939 5940 5941 5942 5943 5944 5945 5945 5946 5947 5947 5949 5950 5951 5952 5952 5951 5951 5951 5951 5952 5952 5953 5953 5953 5952 5953 5954 5954 5955 5955 5956 5956 5956 5957 5957 5957 5958 5958 5958 5958 5958 5958 5958 5957 5957 5956 5955 5954 5953
5930 5931 5931 5931 5931 5931 5931 5931 5932 5932 5931 5931 5931 5932 5932 5932 5932 5933 5933 5933 5933 5933 5934 5934 5934 5935 5935 5936 5936 5937 5938 5938 5939 5940 5941 5942 5942 5943 5944 5945 5946 5947 5947 5948 5949 5950 5951 5952 5952 5952 5952 5952 5951 5951 5952 5952 5953 5953 5954 5954 5954 5954 5955 5956 5956 5956 5957 5957 5957 5958 5958 5958 5959 5959 5959 5959 5959 5959 5959 5958 5958 5957 5957 5956 5955
5931 5931 5932 5932 5932 5932 5932 5933 5933 5933 5933 5933 5933 5933 5933 5933 5934 5934 5934 5935 5935 5935 5936 5936 5936 5937 5937 5938 5938 5939 5940 5940 5941 5942 5943 5944 5945 5945 5946 5947 5948 5949 5949 5950 5951 5953 5953 5953 5953 5953 5952 5953 5953 5953 5953 5953 5954 5954 5954 5955 5955 5955 5956 5957 5957 5957 5958 5958 5958 5959 5959 5959 5959 5959 5959 5959 5959 5959 5959 5959 5959 5959 5958 5957 5956
5932 5932 5933 5933 5933 5933 5933 5934 5934 5934 5934 5934 5934 5934 5934 5934 5935 5935 5935 5936 5936 5936 5937 5938 5938 5939 5939 5939 5940 5941 5941 5942 5943 5944 5945 5946 5947 5948 5948 5949 5950 5950 5951 5952 5953 5953 5953 5953 5954 5954 5953 5953 5954 5954 5953 5954 5954 5955 5955 5956 5956 5956 5957 5957 5958 5959 5959 5959 5959 5959 5960 5960 5960 5959 5959 5960 5959 5959 5960 5960 5960 5959 5959 5958 5958
5933 5933 5933 5934 5934 5934 5934 5934 5935 5935 5935 5935 5935 5935 5936 5936 5936 5936 5937 5937 5937 5938 5939 5939 5940 5940 5941 5941 5942 5943 5944 5945 5946 5947 5947 5949 5950 5950 5950 5951 5951 5951 5952 5953 5953 5953 5954 5954 5954 5955 5954 5954 5955 5955 5954 5955 5955 5955 5956 5956 5957 5957 5958 5958 5959 5960 5960 5960 5960 5960 5961 5961 5960 5960 5960 5961 5961 5960 5960 5960 5960 5960 5960 5960 5959
5933 5934 5934 5934 5935 5935 5935 5936 5936 5937 5937 5937 5937 5937 5937 5937 5938 5938 5938 5939 5939 5940 5940 5941 5941 5942 5943 5944 5944 5945 5946 5947 5948 5949 5950 5950 5951 5951 5952 5952 5952 5952 5953 5954 5954 5954 5955 5955 5955 5955 5955 5955 5955 5956 5955 5955 5956 5956 5957 5957 5958 5958 5959 5959 5960 5961 5961 5961 5961 5962 5962 5962 5961 5961 5962 5962 5962 5961 5961 5961 5960 5960 5961 5960 5960
5934 5934 5935 5935 5935 5936 5936 5937 5937 5937 5938 5938 5938 5938 5938 5939 5939 5939 5940 5940 5941 5941 5942 5942 5943 5944 5945 5945 5946 5947 5948 5949 5950 5951 5951 5952 5952 5952 5953 5953 5953 5954 5955 5956 5956 5956 5956 5956 5956 5955 5956 5955 5956 5956 5956 5956 5957 5957 5957 5958 5958 5958 5959 5959 5960 5961 5962 5962 5963 5963 5962 5963 5963 5962 5963 5962 5962 5962 5962 5960 5960 5960 5961 5961 5960
5934 5935 5935 5936 5936 5937 5937 5938 5938 5938 5939 5939 5939 5939 5940 5940 5940 5941 5941 5942 5943 5943 5944 5944 5945 5946 5947 5947 5948 5948 5949 5950 5951 5952 5953 5953 5953 5953 5954 5954 5955 5955 5956 5957 5956 5956 5956 5956 5956 5956 5956 5956 5956 5957 5957 5957 5958 5958 5958 5958 5958 5959 5959 5960 5961 5962 5962 5963 5964 5964 5963 5964 5965 5964 5963 5962 5962 5962 5962 5961 5960 5960 5960 5960 5960
5934 5935 5936 5936 5937 5938 5938 5939 5939 5939 5940 5940 5940 5941 5941 5941 5942 5942 5943 5943 5944 5945 5945 5946 5947 5947 5948 5949 5949 5950 5951 5952 5952 5953 5954 5954 5954 5954 5954 5955 5955 5956 5956 5957 5957 5957 5957 5956 5956 5956 5956 5957 5957 5958 5958 5958 5959 5959 5959 5959 5959 5960 5961 5961 5962 5962 5963 5963 5964 5965 5965 5965 5965 5965 5965 5964 5963 5963 5964 5964 5962 5960 5958 5959 5960
5934 5935 5936 5937 5937 5938 5939 5939 5939 5940 5940 5941 5941 5942 5942 5943 5943 5944 5944 5945 5946 5946 5947 5947 5948 5949 5949 5950 5951 5951 5952 5953 5953 5954 5954 5955 5955 5955 5955 5955 5956 5956 5956 5956 5956 5957 5957 5957 5957 5957 5957 5957 5958 5958 5959 5959 5960 5960 5960 5959 5960 5961 5962 5962 5962 5963 5963 5964 5964 5966 5966 5966 5966 5966 5966 5965 5965 5966 5966 5965 5964 5962 5960 5960 5960
5934 5935 5935 5937 5938 5938 5939 5940 5940 5940 5941 5942 5942 5943 5943 5944 5944 5945 5945 5946 5947 5948 5948 5949 5949 5950 5950 5951 5951 5952 5953 5953 5954 5954 5955 5955 5956 5956 5956 5956 5956 5956 5956 5956 5956 5957 5957 5957 5957 5958 5958 5959 5959 5959 5960 5960 5961 5961 5961 5961 5961 5962 5962 5962 5963 5963 5964 5965 5965 5966 5966 5966 5966 5966 5967 5967 5967 5968 5966 5964 5964 5964 5964 5965 5964
5933 5934 5935 5936 5937 5938 5939 5940 5940 5941 5942 5942 5943 5943 5944 5945 5945 5946 5947 5947 5948 5948 5949 5950 5950 5951 5951 5952 5952 5953 5953 5954 5955 5955 5956 5956 5957 5957 5957 5957 5957 5957 5957 5957 5957 5957 5958 5958 5958 5959 5959 5960 5960 5960 5961 5961 5962 5962 5962 5962 5962 5962 5963 5963 5963 5964 5964 5965 5966 5966 5967 5967 5967 5966 5967 5967 5967 5967 5966 5964 5965 5967 5968 5968 5967
5933 5934 5935 5936 5937 5938 5939 5940 5941 5941 5942 5943 5944 5944 5945 5945 5946 5947 5948 5948 5949 5949 5950 5951 5951 5952 5953 5953 5953 5954 5954 5955 5956 5956 5957 5957 5957 5957 5957 5958 5957 5957 5957 5957 5958 5958 5959 5959 5959 5960 5960 5960 5961 5961 5962 5962 5963 5963 5963 5964 5964 5963 5964 5964 5964 5965 5966 5966 5967 5967 5968 5968 5968 5968 5968 5967 5966 5966 5965 5965 5966 5968 5968 5967 5967
5932 5933 5934 5935 5936 5938 5939 5940 5941 5942 5943 5943 5944 5945 5945 5946 5947 5948 5949 5949 5950 5951 5951 5952 5952 5953 5954 5954 5954 5955 5955 5956 5956 5957 5957 5957 5958 5958 5958 5958 5958 5958 5958 5958 5959 5959 5960 5960 5961 5961 5961 5961 5962 5962 5963 5963 5963 5964 5965 5965 5965 5965 5964 5965 5965 5966 5967 5967 5968 5968 5969 5969 5968 5969 5969 5967 5967 5966 5966 5966 5967 5968 5967 5966 5966
5932 5933 5934 5935 5936 5937 5938 5939 5941 5942 5943 5943 5944 5945 5945 5946 5947 5948 5949 5949 5950 5951 5952 5952 5953 5953 5954 5955 5955 5956 5956 5956 5957 5957 5957 5958 5958 5958 5958 5958 5959 5959 5959 5960 5960 5960 5961 5961 5962 5962 5962 5962 5963 5963 5964 5964 5964 5965 5965 5966 5966 5966 5966 5966 5966 5967 5967 5968 5969 5969 5969 5970 5969 5969 5969 5968 5967 5967 5966 5966 5967 5967 5967 5966 5966
5931 5932 5933 5934 5935 5937 5938 5939 5940 5942 5942 5943 5944 5945 5945 5946 5947 5948 5949 5949 5950 5951 5952 5952 5953 5954 5954 5955 5955 5956 5956 5957 5957 5957 5957 5958 5958 5958 5959 5959 5959 5960 5960 5961 5961 5961 5962 5962 5963 5963 5963 5963 5964 5964 5964 5965 5965 5966 5966 5967 5967 5967 5967 5967 5968 5968 5968 5969 5969 5969 5969 5970 5970 5970 5970 5969 5968 5968 5967 5966 5967 5968 5967 5967 5967
5930 5931 5932 5933 5935 5936 5937 5939 5940 5941 5942 5943 5943 5944 5945 5946 5947 5948 5949 5950 5951 5951 5952 5953 5953 5954 5955 5955 5956 5956 5956 5957 5957 5958 5958 5958 5958 5959 5959 5959 5960 5960 5961 5961 5962 5962 5963 5963 5963 5964 5964 5964 5964 5965 5965 5965 5966 5966 5967 5967 5968 5968 5968 5969 5969 5969 5969 5969 5969 5969 5970 5970 5970 5970 5970 5969 5969 5969 5967 5965 5966 5967 5966 5965 5966
5929 5930 5931 5933 5934 5935 5937 5938 5939 5941 5942 5943 5943 5944 5945 5946 5947 5948 5949 5950 5951 5951 5952 5953 5953 5954 5955 5955 5956 5956 5956 5957 5957 5958 5958 5958 5959 5959 5960 5960 5960 5961 5961 5962 5963 5963 5963 5964 5964 5965 5965 5965 5965 5965 5966 5966 5966 5967 5967 5968 5968 5969 5969 5969 5969 5969 5969 5969 5969 5969 5969 5969 5970 5970 5969 5969 5968 5968 5967 5965 5966 5967 5965 5965 5965
5928 5929 5931 5933 5934 5934 5936 5938 5939 5940 5941 5942 5943 5944 5945 5946 5947 5948 5949 5949 5950 5951 5952 5953 5953 5954 5955 5955 5956 5956 5957 5957 5957 5958 5958 5959 5959 5960 5960 5960 5961 5961 5962 5962 5963 5964 5964 5964 5965 5965 5965 5966 5966 5966 5966 5966 5967 5967 5968 5968 5969 5969 5969 5969 5969 5969 5970 5969 5969 5968 5969 5969 5969 5969 5968 5968 5968 5968 5966 5965 5965 5966 5966 5965 5966